• în România
  • Lista ţărilor
  • Pe 7 zile
  • Temperatura apei
  • Hartă satelitară
  • Meteo pe hartă
  • Widget-uri
  • user-avatar
    Intrare

    Meteo pe oră la Oran

    Astăzi, 18 Ianuarie, Joi

    Timp Temperatura Precipitaţii Vânt Presiune Umiditate
    00:00 +12°C° 0 mm 4 m/s 756 mmHg 51%
    01:00 +12°C° 0 mm 4 m/s 756 mmHg 53%
    02:00 +11°C° 0 mm 4 m/s 755 mmHg 55%
    03:00 +11°C° 0 mm 4 m/s 755 mmHg 57%
    04:00 +11°C° 0 mm 4 m/s 755 mmHg 57%
    05:00 +10°C° 0 mm 5 m/s 755 mmHg 57%
    06:00 +10°C° 0 mm 5 m/s 755 mmHg 55%
    07:00 +12°C° 0 mm 5 m/s 755 mmHg 52%
    08:00 +13°C° 0 mm 5 m/s 755 mmHg 49%
    09:00 +15°C° 0 mm 5 m/s 756 mmHg 46%
    10:00 +16°C° 0 mm 6 m/s 755 mmHg 41%
    11:00 +19°C° 0 mm 6 m/s 755 mmHg 36%
    12:00 +20°C° 0 mm 6 m/s 755 mmHg 32%
    13:00 +21°C° 0 mm 6 m/s 754 mmHg 32%
    14:00 +21°C° 0 mm 6 m/s 754 mmHg 32%
    15:00 +21°C° 0 mm 6 m/s 753 mmHg 32%
    16:00 +20°C° 0 mm 6 m/s 753 mmHg 40%
    17:00 +17°C° 0 mm 5 m/s 753 mmHg 48%
    18:00 +16°C° 0 mm 5 m/s 753 mmHg 55%
    19:00 +15°C° 0 mm 5 m/s 753 mmHg 57%
    20:00 +15°C° 0 mm 5 m/s 753 mmHg 59%
    21:00 +15°C° 0 mm 4 m/s 753 mmHg 61%
    22:00 +15°C° 0 mm 4 m/s 752 mmHg 62%
    23:00 +14°C° 0 mm 4 m/s 752 mmHg 64%

    Mâine, 19 Ianuarie, Vineri

    Timp Temperatura Precipitaţii Vânt Presiune Umiditate
    00:00 +14°C° 0 mm 5 m/s 752 mmHg 65%
    01:00 +14°C° 0,1 mm 4 m/s 752 mmHg 67%
    02:00 +14°C° 0,1 mm 4 m/s 752 mmHg 69%
    03:00 +14°C° 0,1 mm 4 m/s 752 mmHg 72%
    04:00 +14°C° 0,2 mm 3 m/s 752 mmHg 77%
    05:00 +13°C° 0,2 mm 3 m/s 752 mmHg 82%
    06:00 +14°C° 0,2 mm 2 m/s 752 mmHg 88%
    07:00 +13°C° 0,1 mm 3 m/s 753 mmHg 88%
    08:00 +13°C° 0,1 mm 3 m/s 753 mmHg 88%
    09:00 +14°C° 0,1 mm 4 m/s 753 mmHg 89%
    10:00 +14°C° 0,1 mm 5 m/s 753 mmHg 87%
    11:00 +14°C° 0,1 mm 5 m/s 753 mmHg 84%
    12:00 +15°C° 0,1 mm 6 m/s 753 mmHg 82%
    13:00 +15°C° 0,1 mm 6 m/s 754 mmHg 82%
    14:00 +14°C° 0,1 mm 6 m/s 754 mmHg 81%
    15:00 +14°C° 0,1 mm 6 m/s 754 mmHg 81%
    16:00 +14°C° 0,1 mm 6 m/s 754 mmHg 83%
    17:00 +13°C° 0,1 mm 5 m/s 755 mmHg 85%
    18:00 +13°C° 0,1 mm 4 m/s 755 mmHg 87%
    19:00 +13°C° 0 mm 4 m/s 756 mmHg 88%
    20:00 +12°C° 0 mm 4 m/s 756 mmHg 88%
    21:00 +12°C° 0 mm 4 m/s 757 mmHg 89%
    22:00 +12°C° 0 mm 4 m/s 757 mmHg 90%
    23:00 +12°C° 0 mm 4 m/s 758 mmHg 91%

    Poimâine, 20 Ianuarie, Sâmbătă

    Timp Temperatura Precipitaţii Vânt Presiune Umiditate
    00:00 +11°C° 0 mm 4 m/s 758 mmHg 92%
    01:00 +11°C° 0 mm 4 m/s 758 mmHg 91%
    02:00 +11°C° 0 mm 4 m/s 758 mmHg 90%
    03:00 +10°C° 0 mm 4 m/s 758 mmHg 89%
    04:00 +10°C° 0,1 mm 4 m/s 758 mmHg 88%
    05:00 +10°C° 0,1 mm 4 m/s 758 mmHg 86%
    06:00 +10°C° 0,1 mm 4 m/s 758 mmHg 84%
    07:00 +11°C° 0 mm 4 m/s 759 mmHg 79%
    08:00 +12°C° 0 mm 4 m/s 759 mmHg 74%
    09:00 +13°C° 0 mm 4 m/s 760 mmHg 68%
    10:00 +14°C° 0 mm 4 m/s 760 mmHg 64%
    11:00 +15°C° 0 mm 5 m/s 760 mmHg 60%
    12:00 +16°C° 0 mm 5 m/s 759 mmHg 56%
    13:00 +17°C° 0 mm 5 m/s 759 mmHg 54%
    14:00 +17°C° 0 mm 5 m/s 759 mmHg 52%
    15:00 +17°C° 0 mm 6 m/s 758 mmHg 50%
    16:00 +16°C° 0 mm 5 m/s 759 mmHg 56%
    17:00 +14°C° 0 mm 4 m/s 759 mmHg 62%
    18:00 +13°C° 0 mm 4 m/s 759 mmHg 68%
    19:00 +13°C° 0 mm 4 m/s 759 mmHg 67%
    20:00 +13°C° 0 mm 4 m/s 760 mmHg 66%
    21:00 +12°C° 0 mm 4 m/s 760 mmHg 65%
    22:00 +12°C° 0 mm 4 m/s 760 mmHg 63%
    23:00 +12°C° 0 mm 4 m/s 760 mmHg 61%

    21 Ianuarie, Duminică

    Timp Temperatura Precipitaţii Vânt Presiune Umiditate
    00:00 +12°C° 0 mm 4 m/s 760 mmHg 59%
    01:00 +12°C° 0 mm 4 m/s 760 mmHg 57%
    02:00 +12°C° 0 mm 4 m/s 760 mmHg 55%
    03:00 +12°C° 0 mm 4 m/s 760 mmHg 53%
    04:00 +11°C° 0 mm 4 m/s 760 mmHg 52%
    05:00 +11°C° 0 mm 4 m/s 760 mmHg 50%
    06:00 +11°C° 0 mm 4 m/s 760 mmHg 49%
    07:00 +13°C° 0 mm 4 m/s 760 mmHg 46%
    08:00 +14°C° 0 mm 4 m/s 761 mmHg 44%
    09:00 +15°C° 0 mm 4 m/s 761 mmHg 41%
    10:00 +18°C° 0 mm 4 m/s 761 mmHg 38%
    11:00 +19°C° 0 mm 4 m/s 761 mmHg 36%
    12:00 +20°C° 0 mm 4 m/s 761 mmHg 33%
    13:00 +20°C° 0 mm 4 m/s 761 mmHg 34%
    14:00 +20°C° 0 mm 4 m/s 760 mmHg 35%
    15:00 +20°C° 0 mm 4 m/s 760 mmHg 36%
    16:00 +18°C° 0 mm 3 m/s 760 mmHg 44%
    17:00 +16°C° 0 mm 3 m/s 760 mmHg 52%
    18:00 +14°C° 0 mm 2 m/s 760 mmHg 59%
    19:00 +14°C° 0 mm 2 m/s 761 mmHg 58%
    20:00 +14°C° 0 mm 2 m/s 761 mmHg 57%
    21:00 +14°C° 0 mm 2 m/s 761 mmHg 55%
    22:00 +14°C° 0 mm 2 m/s 761 mmHg 54%
    23:00 +13°C° 0 mm 3 m/s 761 mmHg 53%

    22 Ianuarie, Luni

    Timp Temperatura Precipitaţii Vânt Presiune Umiditate
    00:00 +13°C° 0 mm 3 m/s 761 mmHg 52%
    01:00 +13°C° 0 mm 2 m/s 761 mmHg 53%
    02:00 +13°C° 0 mm 2 m/s 761 mmHg 53%
    03:00 +13°C° 0 mm 2 m/s 760 mmHg 54%
    04:00 +12°C° 0 mm 2 m/s 760 mmHg 55%
    05:00 +12°C° 0 mm 2 m/s 760 mmHg 56%
    06:00 +12°C° 0 mm 2 m/s 760 mmHg 56%
    07:00 +14°C° 0 mm 1 m/s 761 mmHg 52%
    08:00 +16°C° 0 mm 1 m/s 761 mmHg 48%
    09:00 +19°C° 0 mm 1 m/s 761 mmHg 44%
    10:00 +20°C° 0 mm 1 m/s 761 mmHg 40%
    11:00 +21°C° 0 mm 1 m/s 761 mmHg 36%
    12:00 +21°C° 0 mm 0 m/s 761 mmHg 33%
    13:00 +23°C° 0 mm 1 m/s 760 mmHg 32%
    14:00 +23°C° 0 mm 1 m/s 760 mmHg 32%
    15:00 +23°C° 0 mm 1 m/s 759 mmHg 32%
    16:00 +21°C° 0 mm 1 m/s 759 mmHg 37%
    17:00 +20°C° 0 mm 1 m/s 760 mmHg 42%
    18:00 +18°C° 0 mm 1 m/s 760 mmHg 47%
    19:00 +16°C° 0 mm 1 m/s 760 mmHg 49%
    20:00 +15°C° 0 mm 1 m/s 760 mmHg 51%
    21:00 +15°C° 0 mm 1 m/s 761 mmHg 53%
    22:00 +14°C° 0 mm 1 m/s 760 mmHg 54%
    23:00 +14°C° 0 mm 1 m/s 760 mmHg 55%

    23 Ianuarie, Marţi

    Timp Temperatura Precipitaţii Vânt Presiune Umiditate
    00:00 +13°C° 0 mm 1 m/s 760 mmHg 55%
    01:00 +13°C° 0 mm 1 m/s 760 mmHg 58%
    02:00 +13°C° 0 mm 1 m/s 760 mmHg 60%
    03:00 +12°C° 0 mm 0 m/s 760 mmHg 62%
    04:00 +12°C° 0 mm 1 m/s 760 mmHg 65%
    05:00 +12°C° 0 mm 1 m/s 760 mmHg 67%
    06:00 +12°C° 0 mm 1 m/s 760 mmHg 70%
    07:00 +14°C° 0 mm 1 m/s 760 mmHg 62%
    08:00 +16°C° 0 mm 1 m/s 761 mmHg 53%
    09:00 +19°C° 0 mm 1 m/s 761 mmHg 45%
    10:00 +20°C° 0 mm 1 m/s 761 mmHg 41%
    11:00 +22°C° 0 mm 1 m/s 761 mmHg 37%
    12:00 +23°C° 0 mm 1 m/s 761 mmHg 32%
    13:00 +23°C° 0 mm 2 m/s 760 mmHg 32%
    14:00 +23°C° 0 mm 2 m/s 760 mmHg 31%
    15:00 +22°C° 0 mm 3 m/s 760 mmHg 31%
    16:00 +20°C° 0 mm 3 m/s 760 mmHg 36%
    17:00 +18°C° 0 mm 3 m/s 760 mmHg 41%
    18:00 +17°C° 0 mm 4 m/s 760 mmHg 46%
    19:00 +16°C° 0 mm 3 m/s 760 mmHg 49%
    20:00 +14°C° 0 mm 3 m/s 760 mmHg 51%
    21:00 +14°C° 0 mm 3 m/s 761 mmHg 54%
    22:00 +14°C° 0 mm 2 m/s 760 mmHg 54%
    23:00 +14°C° 0 mm 2 m/s 760 mmHg 54%
    Arată mai mult